User: anonymous   Login
Location: Unspecified
(0.0000°N, 0.0000°E)
Time: 18:59:01
(UTC+01:00)
Language:

TRAILBLAZER - Orbit

View from above orbital plane
View from above orbital plane
View from above satellite
View from above satellite

Ground track
Ground track

The orbit data is extracted from the following two-line orbital elements,

1 27609U 02058E   19083.77809273 -.00000069  00000-0  10663-4 0  9999
2 27609  64.5563 179.9036 0053245 253.5055 106.0195 14.78492602877124
Epoch (UTC): 24 March 2019 18:40:27
Eccentricity: 0.0053245
inclination: 64.5563°
perigee height: 597 km
apogee height: 671 km
right ascension of ascending node: 179.9036°
argument of perigee: 253.5055°
revolutions per day: 14.78492602
mean anomaly at epoch: 106.0195°
orbit number at epoch: 87712

The dashed part of the orbit path shows where the satellite is in the earth's shadow,  

DLR